Weather in Draguignan

France     43°32′17″N   6°27′48″E
temp.,
°C
wind,
m/s
gust,
m/s
humid.,
%
clouds,
%
prec.,
mm/h
press.,
hPa
HPBL,
m
17 may, mon
mon1723:00+13w498291 1.3 1009364
02:00+13w613795 1.4 1008959
05:00+12wnw7175315 0.0 10071199
08:00+12wnw817507 0.0 1008977
11:00+18wnw9173635 0.0 10091686
14:00+20wnw10153012 0.0 10101959
17:00+21wnw1015350 0.0 10101879
20:00+17wnw916460 0.0 10111275
18 may, tue
tue1823:00+13wnw513530 0.0 1013550
02:00+12nw512601 0.0 1014429
05:00+9nw366981 0.0 1013154
08:00+12w41058100 0.0 1014363
11:00+19w793227 0.0 1014999
14:00+22w71124100 0.0 10141802
17:00+18wnw81337100 0.0 10141119
20:00+15wnw612525 0.0 1013837
19 may, wed
wed1923:00+12wnw411672 0.0 1014461
02:00+10wnw4769100 0.0 1014223
05:00+8nw227288 0.0 101547
08:00+12wnw2355100 0.0 1016190
11:00+20w23319 0.0 10161170
14:00+23wnw452545 0.0 10152352
17:00+21wnw9102690 0.0 10142385
20:00+17wnw916402 0.0 10141445
20 may, thu
thu2023:00+13nw7155321 0.0 1015611
02:00+11nw4962100 0.0 1015398
05:00+8nw356970 0.0 1016119
08:00+13nw12514 0.0 1017225
11:00+20ssw23350 0.0 10181291
14:00+23ssw33243 0.0 10182615
17:00+23s342669 0.0 10182289
20:00+17e234511 0.0 1020154
21 may, fri
fri2123:00+12n22635 0.0 102216
02:00+11n11595 0.0 102212
05:00+11nne225657 0.0 102222
08:00+15ene1345100 0.0 1022197
11:00+20sse233584 0.0 10211195
14:00+24s3426100 0.0 10192364
17:00+22sw663197 0.0 10181689
20:00+18sw474449 0.0 1018469